Time,TemperatureF,DewpointF,PressureIn,WindDirection,WindDirectionDegrees,WindSpeedMPH,WindSpeedGustMPH,Humidity,HourlyPrecipIn,Conditions,Clouds,dailyrainin,SolarRadiationWatts/m^2,SoftwareType,DateUTC
2013-06-20 00:01:00,52.2,46.2,29.68,North,355,0.0,0.0,80,0.00,,,0.00,0,WeatherCatV1.15B25,2013-06-20 04:01:00,
2013-06-20 00:06:00,52.0,46.4,29.68,North,355,0.0,0.0,81,0.00,,,0.00,0,WeatherCatV1.15B25,2013-06-20 04:06:00,
2013-06-20 00:08:00,51.9,46.3,29.68,North,355,0.0,0.0,81,0.00,,,0.00,0,WeatherCatV1.15B25,2013-06-20 04:08:00,
2013-06-20 00:13:00,51.7,46.1,29.68,North,355,0.0,0.0,81,0.00,,,0.00,0,WeatherCatV1.15B25,2013-06-20 04:13:00,
2013-06-20 00:18:00,51.5,45.9,29.68,North,355,0.0,0.0,81,0.00,,,0.00,0,WeatherCatV1.15B25,2013-06-20 04:18:00,
2013-06-20 00:23:00,51.4,46.1,29.68,North,355,0.0,0.0,82,0.00,,,0.00,0,WeatherCatV1.15B25,2013-06-20 04:23:00,
2013-06-20 00:28:00,51.2,46.2,29.68,North,355,0.0,0.0,83,0.00,,,0.00,0,WeatherCatV1.15B25,2013-06-20 04:28:00,
2013-06-20 00:33:00,50.9,45.6,29.68,North,355,0.0,1.0,82,0.00,,,0.00,0,WeatherCatV1.15B25,2013-06-20 04:33:00,
2013-06-20 00:38:00,50.7,45.4,29.68,North,355,0.0,0.0,82,0.00,,,0.00,0,WeatherCatV1.15B25,2013-06-20 04:38:00,
2013-06-20 00:43:00,50.5,45.2,29.68,North,355,0.0,0.0,82,0.00,,,0.00,0,WeatherCatV1.15B25,2013-06-20 04:43:00,
2013-06-20 00:48:00,50.3,45.3,29.69,North,355,0.0,1.0,83,0.00,,,0.00,0,WeatherCatV1.15B25,2013-06-20 04:48:00,
2013-06-20 00:53:00,50.1,45.1,29.69,North,355,0.0,0.0,83,0.00,,,0.00,0,WeatherCatV1.15B25,2013-06-20 04:53:00,
2013-06-20 00:58:00,50.0,45.4,29.69,North,355,0.0,0.0,84,0.00,,,0.00,0,WeatherCatV1.15B25,2013-06-20 04:58:00,
2013-06-20 01:03:00,49.8,45.2,29.69,North,355,0.0,0.0,84,0.00,,,0.00,0,WeatherCatV1.15B25,2013-06-20 05:03:00,
2013-06-20 01:08:00,49.6,45.3,29.69,North,355,0.0,0.0,85,0.00,,,0.00,0,WeatherCatV1.15B25,2013-06-20 05:08:00,
2013-06-20 01:13:00,49.5,44.9,29.69,North,355,0.0,0.0,84,0.00,,,0.00,0,WeatherCatV1.15B25,2013-06-20 05:13:00,
2013-06-20 01:18:00,49.3,45.0,29.69,North,355,0.0,0.0,85,0.00,,,0.00,0,WeatherCatV1.15B25,2013-06-20 05:18:00,
2013-06-20 01:23:00,49.1,44.8,29.69,North,355,0.0,0.0,85,0.00,,,0.00,0,WeatherCatV1.15B25,2013-06-20 05:23:00,
2013-06-20 01:28:00,48.9,44.6,29.69,North,355,0.0,0.0,85,0.00,,,0.00,0,WeatherCatV1.15B25,2013-06-20 05:28:00,
2013-06-20 01:33:00,48.7,44.7,29.69,North,355,0.0,0.0,86,0.00,,,0.00,0,WeatherCatV1.15B25,2013-06-20 05:33:00,
2013-06-20 01:38:00,48.6,44.6,29.69,North,355,0.0,0.0,86,0.00,,,0.00,0,WeatherCatV1.15B25,2013-06-20 05:38:00,
2013-06-20 01:43:00,48.5,44.8,29.69,North,355,0.0,0.0,87,0.00,,,0.00,0,WeatherCatV1.15B25,2013-06-20 05:43:00,
2013-06-20 01:48:00,48.4,45.0,29.69,North,355,0.0,0.0,88,0.00,,,0.00,0,WeatherCatV1.15B25,2013-06-20 05:48:00,
2013-06-20 01:53:00,48.2,44.8,29.70,North,355,0.0,0.0,88,0.00,,,0.00,0,WeatherCatV1.15B25,2013-06-20 05:53:00,
2013-06-20 01:58:00,48.2,44.8,29.70,North,355,0.0,0.0,88,0.00,,,0.00,0,WeatherCatV1.15B25,2013-06-20 05:58:00,
2013-06-20 02:03:00,48.1,45.0,29.70,North,355,0.0,0.0,89,0.00,,,0.00,0,WeatherCatV1.15B25,2013-06-20 06:03:00,
2013-06-20 02:08:00,48.0,44.9,29.70,North,355,0.0,0.0,89,0.00,,,0.00,0,WeatherCatV1.15B25,2013-06-20 06:08:00,
2013-06-20 02:13:00,47.9,44.8,29.70,North,355,0.0,0.0,89,0.00,,,0.00,0,WeatherCatV1.15B25,2013-06-20 06:13:00,
2013-06-20 02:18:00,47.8,44.7,29.70,North,355,0.0,0.0,89,0.00,,,0.00,0,WeatherCatV1.15B25,2013-06-20 06:18:00,
2013-06-20 02:23:00,47.6,44.8,29.70,North,355,0.0,0.0,90,0.00,,,0.00,0,WeatherCatV1.15B25,2013-06-20 06:23:00,
2013-06-20 02:28:00,47.5,44.7,29.70,North,355,0.0,0.0,90,0.00,,,0.00,0,WeatherCatV1.15B25,2013-06-20 06:28:00,
2013-06-20 02:33:00,47.4,44.6,29.70,North,355,0.0,0.0,90,0.00,,,0.00,0,WeatherCatV1.15B25,2013-06-20 06:33:00,
2013-06-20 02:38:00,47.2,44.4,29.70,North,355,0.0,0.0,90,0.00,,,0.00,0,WeatherCatV1.15B25,2013-06-20 06:38:00,
2013-06-20 02:43:00,47.1,44.3,29.70,North,355,0.0,0.0,90,0.00,,,0.00,0,WeatherCatV1.15B25,2013-06-20 06:43:00,
2013-06-20 02:48:00,47.0,44.2,29.70,North,355,0.0,0.0,90,0.00,,,0.00,0,WeatherCatV1.15B25,2013-06-20 06:48:00,
2013-06-20 02:53:00,46.9,44.1,29.70,North,355,0.0,1.0,90,0.00,,,0.00,0,WeatherCatV1.15B25,2013-06-20 06:53:00,
2013-06-20 02:58:00,46.7,43.9,29.70,North,355,0.0,1.0,90,0.00,,,0.00,0,WeatherCatV1.15B25,2013-06-20 06:58:00,
2013-06-20 03:03:00,46.7,43.9,29.70,North,355,0.0,0.0,90,0.00,,,0.00,0,WeatherCatV1.15B25,2013-06-20 07:03:00,
2013-06-20 03:08:00,46.5,43.7,29.71,North,355,0.0,0.0,90,0.00,,,0.00,0,WeatherCatV1.15B25,2013-06-20 07:08:00,
2013-06-20 03:13:00,46.4,43.6,29.71,North,355,0.0,0.0,90,0.00,,,0.00,0,WeatherCatV1.15B25,2013-06-20 07:13:00,
2013-06-20 03:18:00,46.3,43.5,29.71,North,355,0.0,0.0,90,0.00,,,0.00,0,WeatherCatV1.15B25,2013-06-20 07:18:00,
2013-06-20 03:23:00,46.1,43.3,29.71,North,355,0.0,0.0,90,0.00,,,0.00,0,WeatherCatV1.15B25,2013-06-20 07:23:00,
2013-06-20 03:28:00,46.0,43.2,29.71,North,355,0.0,0.0,90,0.00,,,0.00,0,WeatherCatV1.15B25,2013-06-20 07:28:00,
2013-06-20 03:33:00,45.9,43.1,29.71,North,355,0.0,0.0,90,0.00,,,0.00,0,WeatherCatV1.15B25,2013-06-20 07:33:00,
2013-06-20 03:38:00,45.8,43.0,29.71,North,355,0.0,0.0,90,0.00,,,0.00,0,WeatherCatV1.15B25,2013-06-20 07:38:00,
2013-06-20 03:43:00,45.7,42.9,29.72,North,355,0.0,0.0,90,0.00,,,0.00,0,WeatherCatV1.15B25,2013-06-20 07:43:00,
2013-06-20 03:48:00,45.6,42.8,29.72,North,355,0.0,0.0,90,0.00,,,0.00,0,WeatherCatV1.15B25,2013-06-20 07:48:00,
2013-06-20 03:53:00,45.5,42.7,29.72,North,355,0.0,0.0,90,0.00,,,0.00,0,WeatherCatV1.15B25,2013-06-20 07:53:00,
2013-06-20 03:58:00,45.3,42.5,29.72,North,355,0.0,0.0,90,0.00,,,0.00,0,WeatherCatV1.15B25,2013-06-20 07:58:00,
2013-06-20 04:03:00,45.2,42.4,29.72,North,355,0.0,0.0,90,0.00,,,0.00,0,WeatherCatV1.15B25,2013-06-20 08:03:00,
2013-06-20 04:08:00,45.1,42.3,29.72,North,355,0.0,0.0,90,0.00,,,0.00,0,WeatherCatV1.15B25,2013-06-20 08:08:00,
2013-06-20 04:13:00,45.0,42.2,29.72,North,355,0.0,0.0,90,0.00,,,0.00,0,WeatherCatV1.15B25,2013-06-20 08:13:00,
2013-06-20 04:18:00,45.0,42.2,29.73,North,355,0.0,1.0,90,0.00,,,0.00,0,WeatherCatV1.15B25,2013-06-20 08:18:00,
2013-06-20 04:23:00,44.7,41.9,29.73,North,355,0.0,0.0,90,0.00,,,0.00,0,WeatherCatV1.15B25,2013-06-20 08:23:00,
2013-06-20 04:28:00,44.6,42.1,29.73,North,355,0.0,0.0,91,0.00,,,0.00,0,WeatherCatV1.15B25,2013-06-20 08:28:00,
2013-06-20 04:33:00,44.4,41.9,29.73,North,355,0.0,0.0,91,0.00,,,0.00,0,WeatherCatV1.15B25,2013-06-20 08:33:00,
2013-06-20 04:38:00,44.3,41.8,29.73,North,355,0.0,0.0,91,0.00,,,0.00,0,WeatherCatV1.15B25,2013-06-20 08:38:00,
2013-06-20 04:43:00,44.2,41.7,29.73,North,355,0.0,0.0,91,0.00,,,0.00,0,WeatherCatV1.15B25,2013-06-20 08:43:00,
2013-06-20 04:48:00,44.1,41.6,29.74,North,355,0.0,0.0,91,0.00,,,0.00,0,WeatherCatV1.15B25,2013-06-20 08:48:00,
2013-06-20 04:53:00,44.0,41.5,29.74,North,355,0.0,0.0,91,0.00,,,0.00,0,WeatherCatV1.15B25,2013-06-20 08:53:00,
2013-06-20 04:58:00,43.9,41.4,29.74,North,355,0.0,0.0,91,0.00,,,0.00,0,WeatherCatV1.15B25,2013-06-20 08:58:00,
2013-06-20 05:03:00,43.8,41.6,29.74,North,355,0.0,0.0,92,0.00,,,0.00,0,WeatherCatV1.15B25,2013-06-20 09:03:00,
2013-06-20 05:08:00,43.8,41.6,29.75,North,355,0.0,0.0,92,0.00,,,0.00,0,WeatherCatV1.15B25,2013-06-20 09:08:00,
2013-06-20 05:13:00,43.7,41.5,29.75,North,355,0.0,0.0,92,0.00,,,0.00,0,WeatherCatV1.15B25,2013-06-20 09:13:00,
2013-06-20 05:18:00,43.6,41.4,29.75,North,355,0.0,0.0,92,0.00,,,0.00,0,WeatherCatV1.15B25,2013-06-20 09:18:00,
2013-06-20 05:23:00,43.5,41.3,29.75,North,355,0.0,0.0,92,0.00,,,0.00,5,WeatherCatV1.15B25,2013-06-20 09:23:00,
2013-06-20 05:28:00,43.5,41.3,29.75,North,355,0.0,0.0,92,0.00,,,0.00,5,WeatherCatV1.15B25,2013-06-20 09:28:00,
2013-06-20 05:33:00,43.4,41.5,29.75,North,355,0.0,0.0,93,0.00,,,0.00,9,WeatherCatV1.15B25,2013-06-20 09:33:00,
2013-06-20 05:38:00,43.4,41.5,29.76,North,355,0.0,0.0,93,0.00,,,0.00,9,WeatherCatV1.15B25,2013-06-20 09:38:00,
2013-06-20 05:43:00,43.4,41.5,29.76,North,355,0.0,0.0,93,0.00,,,0.00,12,WeatherCatV1.15B25,2013-06-20 09:43:00,
2013-06-20 05:48:00,43.4,41.5,29.76,North,355,0.0,0.0,93,0.00,,,0.00,14,WeatherCatV1.15B25,2013-06-20 09:48:00,
2013-06-20 05:53:00,43.5,41.9,29.76,North,355,0.0,0.0,94,0.00,,,0.00,18,WeatherCatV1.15B25,2013-06-20 09:53:00,
2013-06-20 05:58:00,43.6,42.0,29.76,North,355,0.0,0.0,94,0.00,,,0.00,19,WeatherCatV1.15B25,2013-06-20 09:58:00,
2013-06-20 06:03:00,43.6,42.0,29.76,North,355,0.0,0.0,94,0.00,,,0.00,23,WeatherCatV1.15B25,2013-06-20 10:03:00,
2013-06-20 06:08:00,43.7,42.1,29.76,North,355,0.0,0.0,94,0.00,,,0.00,25,WeatherCatV1.15B25,2013-06-20 10:08:00,
2013-06-20 06:13:00,44.1,42.8,29.77,North,355,0.0,0.0,95,0.00,,,0.00,26,WeatherCatV1.15B25,2013-06-20 10:13:00,
2013-06-20 06:18:00,44.3,43.2,29.77,North,355,0.0,0.0,96,0.00,,,0.00,28,WeatherCatV1.15B25,2013-06-20 10:18:00,
2013-06-20 06:23:00,44.5,43.4,29.77,North,355,0.0,0.0,96,0.00,,,0.00,30,WeatherCatV1.15B25,2013-06-20 10:23:00,
2013-06-20 06:28:00,44.9,43.8,29.77,North,355,0.0,0.0,96,0.00,,,0.00,33,WeatherCatV1.15B25,2013-06-20 10:28:00,
2013-06-20 06:33:00,45.1,44.0,29.77,North,355,0.0,0.0,96,0.00,,,0.00,37,WeatherCatV1.15B25,2013-06-20 10:33:00,
2013-06-20 06:38:00,45.4,44.6,29.77,North,355,0.0,0.0,97,0.00,,,0.00,39,WeatherCatV1.15B25,2013-06-20 10:38:00,
2013-06-20 06:43:00,45.6,44.8,29.77,North,355,0.0,0.0,97,0.00,,,0.00,40,WeatherCatV1.15B25,2013-06-20 10:43:00,
2013-06-20 06:48:00,45.8,45.0,29.77,North,355,0.0,0.0,97,0.00,,,0.00,42,WeatherCatV1.15B25,2013-06-20 10:48:00,
2013-06-20 06:53:00,46.1,45.3,29.77,North,355,0.0,1.0,97,0.00,,,0.00,44,WeatherCatV1.15B25,2013-06-20 10:53:00,
2013-06-20 06:58:00,46.6,45.8,29.77,North,355,0.0,0.0,97,0.00,,,0.00,47,WeatherCatV1.15B25,2013-06-20 10:58:00,
2013-06-20 07:03:00,47.0,46.5,29.77,North,355,0.0,0.0,98,0.00,,,0.00,49,WeatherCatV1.15B25,2013-06-20 11:03:00,
2013-06-20 07:08:00,47.4,46.9,29.78,North,355,0.0,1.0,98,0.00,,,0.00,51,WeatherCatV1.15B25,2013-06-20 11:08:00,
2013-06-20 07:13:00,47.9,47.4,29.78,North,355,0.0,1.0,98,0.00,,,0.00,53,WeatherCatV1.15B25,2013-06-20 11:13:00,
2013-06-20 07:18:00,48.2,47.7,29.77,North,355,0.0,0.0,98,0.00,,,0.00,54,WeatherCatV1.15B25,2013-06-20 11:18:00,
2013-06-20 07:23:00,48.6,48.1,29.78,North,355,0.0,0.0,98,0.00,,,0.00,56,WeatherCatV1.15B25,2013-06-20 11:23:00,
2013-06-20 07:28:00,48.8,48.3,29.78,North,355,0.0,0.0,98,0.00,,,0.00,58,WeatherCatV1.15B25,2013-06-20 11:28:00,
2013-06-20 07:33:00,49.0,48.5,29.78,North,355,0.0,0.0,98,0.00,,,0.00,60,WeatherCatV1.15B25,2013-06-20 11:33:00,
2013-06-20 07:38:00,49.2,48.7,29.78,North,355,0.0,0.0,98,0.00,,,0.00,62,WeatherCatV1.15B25,2013-06-20 11:38:00,
2013-06-20 07:43:00,49.6,48.8,29.78,North,355,0.0,0.0,97,0.00,,,0.00,63,WeatherCatV1.15B25,2013-06-20 11:43:00,
2013-06-20 07:48:00,50.1,49.0,29.78,North,355,0.0,1.0,96,0.00,,,0.00,67,WeatherCatV1.15B25,2013-06-20 11:48:00,
2013-06-20 07:53:00,50.5,49.1,29.78,North,355,0.0,0.0,95,0.00,,,0.00,70,WeatherCatV1.15B25,2013-06-20 11:53:00,
2013-06-20 07:58:00,51.0,49.3,29.78,North,355,0.0,0.0,94,0.00,,,0.00,84,WeatherCatV1.15B25,2013-06-20 11:58:00,
2013-06-20 08:03:00,51.4,49.4,29.78,North,355,0.0,0.0,93,0.00,,,0.00,70,WeatherCatV1.15B25,2013-06-20 12:03:00,
2013-06-20 08:08:00,51.9,49.6,29.78,North,355,0.0,0.0,92,0.00,,,0.00,72,WeatherCatV1.15B25,2013-06-20 12:08:00,
2013-06-20 08:13:00,52.3,50.0,29.78,North,355,0.0,0.0,92,0.00,,,0.00,74,WeatherCatV1.15B25,2013-06-20 12:13:00,
2013-06-20 08:18:00,52.8,50.5,29.78,North,355,0.0,0.0,92,0.00,,,0.00,76,WeatherCatV1.15B25,2013-06-20 12:18:00,
2013-06-20 08:23:00,53.2,50.0,29.78,North,355,0.0,0.0,89,0.00,,,0.00,76,WeatherCatV1.15B25,2013-06-20 12:23:00,
2013-06-20 08:28:00,53.7,50.5,29.78,North,355,0.0,0.0,89,0.00,,,0.00,77,WeatherCatV1.15B25,2013-06-20 12:28:00,
2013-06-20 08:33:00,54.0,50.5,29.78,North,355,0.0,0.0,88,0.00,,,0.00,77,WeatherCatV1.15B25,2013-06-20 12:33:00,
2013-06-20 08:38:00,54.4,50.6,29.78,North,355,0.0,0.0,87,0.00,,,0.00,79,WeatherCatV1.15B25,2013-06-20 12:38:00,
2013-06-20 08:43:00,54.8,50.7,29.78,North,355,0.0,0.0,86,0.00,,,0.00,81,WeatherCatV1.15B25,2013-06-20 12:43:00,
2013-06-20 08:48:00,55.1,50.7,29.78,North,355,0.0,0.0,85,0.00,,,0.00,81,WeatherCatV1.15B25,2013-06-20 12:48:00,
2013-06-20 08:53:00,55.4,50.6,29.78,North,355,0.0,0.0,84,0.00,,,0.00,83,WeatherCatV1.15B25,2013-06-20 12:53:00,
2013-06-20 08:58:00,55.8,51.0,29.78,North,355,0.0,0.0,84,0.00,,,0.00,83,WeatherCatV1.15B25,2013-06-20 12:58:00,
2013-06-20 09:03:00,56.2,51.4,29.77,North,355,0.0,0.0,84,0.00,,,0.00,83,WeatherCatV1.15B25,2013-06-20 13:03:00,
2013-06-20 09:08:00,56.7,51.9,29.78,North,355,0.0,0.0,84,0.00,,,0.00,84,WeatherCatV1.15B25,2013-06-20 13:08:00,
2013-06-20 09:13:00,57.3,52.5,29.77,North,355,0.0,0.0,84,0.00,,,0.00,86,WeatherCatV1.15B25,2013-06-20 13:13:00,
2013-06-20 09:18:00,57.7,52.2,29.77,North,355,0.0,0.0,82,0.00,,,0.00,86,WeatherCatV1.15B25,2013-06-20 13:18:00,
2013-06-20 09:23:00,58.1,52.6,29.77,North,355,0.0,0.0,82,0.00,,,0.00,86,WeatherCatV1.15B25,2013-06-20 13:23:00,
2013-06-20 09:28:00,58.6,52.4,29.77,North,355,0.0,0.0,80,0.00,,,0.00,88,WeatherCatV1.15B25,2013-06-20 13:28:00,
2013-06-20 09:33:00,59.0,52.8,29.77,North,355,0.0,0.0,80,0.00,,,0.00,88,WeatherCatV1.15B25,2013-06-20 13:33:00,
2013-06-20 09:38:00,59.2,52.3,29.77,North,355,0.0,0.0,78,0.00,,,0.00,88,WeatherCatV1.15B25,2013-06-20 13:38:00,
2013-06-20 09:43:00,59.8,52.6,29.77,North,355,0.0,0.0,77,0.00,,,0.00,105,WeatherCatV1.15B25,2013-06-20 13:43:00,
2013-06-20 09:48:00,60.4,51.3,29.77,North,355,0.0,0.0,72,0.00,,,0.00,95,WeatherCatV1.15B25,2013-06-20 13:48:00,
2013-06-20 09:53:00,60.9,52.2,29.77,North,355,0.0,0.0,73,0.00,,,0.00,107,WeatherCatV1.15B25,2013-06-20 13:53:00,
2013-06-20 09:58:00,61.4,51.1,29.77,North,355,0.0,0.0,69,0.00,,,0.00,132,WeatherCatV1.15B25,2013-06-20 13:58:00,
2013-06-20 10:03:00,61.9,52.0,29.77,North,355,0.0,0.0,70,0.00,,,0.00,104,WeatherCatV1.15B25,2013-06-20 14:03:00,
2013-06-20 10:08:00,62.4,52.1,29.76,North,355,0.0,0.0,69,0.00,,,0.00,220,WeatherCatV1.15B25,2013-06-20 14:08:00,
2013-06-20 10:13:00,62.9,51.8,29.76,North,355,0.0,0.0,67,0.00,,,0.00,656,WeatherCatV1.15B25,2013-06-20 14:13:00,
2013-06-20 10:18:00,63.6,49.5,29.76,North,355,0.0,0.0,60,0.00,,,0.00,446,WeatherCatV1.15B25,2013-06-20 14:18:00,
2013-06-20 10:23:00,64.2,47.7,29.76,North,355,0.0,0.0,55,0.00,,,0.00,353,WeatherCatV1.15B25,2013-06-20 14:23:00,
2013-06-20 10:28:00,64.9,50.7,29.76,North,355,0.0,0.0,60,0.00,,,0.00,283,WeatherCatV1.15B25,2013-06-20 14:28:00,
2013-06-20 10:33:00,65.5,48.9,29.76,NNW,334,0.0,1.0,55,0.00,,,0.00,156,WeatherCatV1.15B25,2013-06-20 14:33:00,
2013-06-20 10:38:00,66.2,50.5,29.76,NNW,334,0.0,0.0,57,0.00,,,0.00,142,WeatherCatV1.15B25,2013-06-20 14:38:00,
2013-06-20 10:43:00,66.8,49.6,29.76,NNW,334,0.0,0.0,54,0.00,,,0.00,111,WeatherCatV1.15B25,2013-06-20 14:43:00,
2013-06-20 10:48:00,67.4,50.7,29.76,NNW,334,0.0,0.0,55,0.00,,,0.00,227,WeatherCatV1.15B25,2013-06-20 14:48:00,
2013-06-20 10:53:00,68.1,50.3,29.76,WNW,299,0.0,2.0,53,0.00,,,0.00,95,WeatherCatV1.15B25,2013-06-20 14:53:00,
2013-06-20 10:58:00,68.7,50.4,29.76,WNW,299,0.0,1.0,52,0.00,,,0.00,95,WeatherCatV1.15B25,2013-06-20 14:58:00,
2013-06-20 11:03:00,69.1,51.2,29.76,West,263,0.0,1.0,53,0.00,,,0.00,181,WeatherCatV1.15B25,2013-06-20 15:03:00,
2013-06-20 11:08:00,69.4,49.4,29.76,West,263,0.0,0.0,49,0.00,,,0.00,163,WeatherCatV1.15B25,2013-06-20 15:08:00,
2013-06-20 11:13:00,69.8,49.2,29.76,West,263,0.0,1.0,48,0.00,,,0.00,262,WeatherCatV1.15B25,2013-06-20 15:13:00,
2013-06-20 11:18:00,70.1,51.1,29.75,West,263,0.0,0.0,51,0.00,,,0.00,441,WeatherCatV1.15B25,2013-06-20 15:18:00,
2013-06-20 11:23:00,70.3,50.8,29.75,West,263,1.0,1.0,50,0.00,,,0.00,227,WeatherCatV1.15B25,2013-06-20 15:23:00,
2013-06-20 11:29:00,70.3,51.3,29.75,West,263,0.0,1.0,51,0.00,,,0.00,417,WeatherCatV1.15B25,2013-06-20 15:29:00,
2013-06-20 11:34:00,70.4,48.6,29.75,West,263,0.0,0.0,46,0.00,,,0.00,195,WeatherCatV1.15B25,2013-06-20 15:34:00,
2013-06-20 11:39:00,70.5,50.4,29.75,West,263,0.0,0.0,49,0.00,,,0.00,109,WeatherCatV1.15B25,2013-06-20 15:39:00,
2013-06-20 11:44:00,70.6,49.4,29.75,West,263,0.0,0.0,47,0.00,,,0.00,123,WeatherCatV1.15B25,2013-06-20 15:44:00,
2013-06-20 11:49:00,70.6,49.9,29.75,West,263,0.0,1.0,48,0.00,,,0.00,109,WeatherCatV1.15B25,2013-06-20 15:49:00,
2013-06-20 11:53:00,70.6,49.4,29.75,West,263,0.0,0.0,47,0.00,,,0.00,93,WeatherCatV1.15B25,2013-06-20 15:53:00,
2013-06-20 11:58:00,70.6,48.8,29.75,West,263,0.0,0.0,46,0.00,,,0.00,95,WeatherCatV1.15B25,2013-06-20 15:58:00,
2013-06-20 12:03:00,70.7,51.1,29.75,NNW,331,0.0,2.0,50,0.00,,,0.00,95,WeatherCatV1.15B25,2013-06-20 16:03:00,
2013-06-20 12:08:00,70.7,50.0,29.74,NNW,331,0.0,1.0,48,0.00,,,0.00,100,WeatherCatV1.15B25,2013-06-20 16:08:00,
2013-06-20 12:13:00,70.7,49.5,29.74,NNW,331,0.0,1.0,47,0.00,,,0.00,97,WeatherCatV1.15B25,2013-06-20 16:13:00,
2013-06-20 12:18:00,70.8,49.6,29.74,NNW,331,0.0,0.0,47,0.00,,,0.00,105,WeatherCatV1.15B25,2013-06-20 16:18:00,
2013-06-20 12:24:00,70.8,50.1,29.74,NNW,331,0.0,1.0,48,0.00,,,0.00,95,WeatherCatV1.15B25,2013-06-20 16:24:00,
2013-06-20 12:29:00,70.9,50.2,29.74,NNW,331,0.0,0.0,48,0.00,,,0.00,97,WeatherCatV1.15B25,2013-06-20 16:29:00,
2013-06-20 12:34:00,70.9,49.7,29.74,NNW,331,0.0,2.0,47,0.00,,,0.00,97,WeatherCatV1.15B25,2013-06-20 16:34:00,
2013-06-20 12:39:00,70.9,48.5,29.74,NNW,331,1.0,1.0,45,0.00,,,0.00,104,WeatherCatV1.15B25,2013-06-20 16:39:00,
2013-06-20 12:44:00,70.9,47.9,29.73,NNW,331,0.0,2.0,44,0.00,,,0.00,111,WeatherCatV1.15B25,2013-06-20 16:44:00,
2013-06-20 12:49:00,71.0,49.7,29.73,North,5,0.0,2.0,47,0.00,,,0.00,104,WeatherCatV1.15B25,2013-06-20 16:49:00,
2013-06-20 12:54:00,71.1,52.0,29.73,North,5,0.0,0.0,51,0.00,,,0.00,109,WeatherCatV1.15B25,2013-06-20 16:54:00,
2013-06-20 12:59:00,71.2,49.3,29.73,North,5,0.0,0.0,46,0.00,,,0.00,95,WeatherCatV1.15B25,2013-06-20 16:59:00,
2013-06-20 13:04:00,71.2,50.5,29.73,North,5,0.0,1.0,48,0.00,,,0.00,97,WeatherCatV1.15B25,2013-06-20 17:04:00,
2013-06-20 13:09:00,71.3,51.7,29.73,North,5,0.0,0.0,50,0.00,,,0.00,116,WeatherCatV1.15B25,2013-06-20 17:09:00,
2013-06-20 13:14:00,71.3,48.2,29.73,North,0,0.0,0.0,44,0.00,,,0.00,127,WeatherCatV1.15B25,2013-06-20 17:14:00,
2013-06-20 13:19:00,71.3,48.8,29.73,North,0,0.0,0.0,45,0.00,,,0.00,137,WeatherCatV1.15B25,2013-06-20 17:19:00,
2013-06-20 13:24:00,71.5,48.4,29.73,North,0,0.0,0.0,44,0.00,,,0.00,167,WeatherCatV1.15B25,2013-06-20 17:24:00,
2013-06-20 13:29:00,71.7,49.8,29.73,North,5,0.0,0.0,46,0.00,,,0.00,139,WeatherCatV1.15B25,2013-06-20 17:29:00,
2013-06-20 13:34:00,71.9,51.1,29.73,North,5,0.0,0.0,48,0.00,,,0.00,153,WeatherCatV1.15B25,2013-06-20 17:34:00,
2013-06-20 13:39:00,72.1,50.7,29.73,North,5,0.0,1.0,47,0.00,,,0.00,135,WeatherCatV1.15B25,2013-06-20 17:39:00,
2013-06-20 13:44:00,72.2,50.8,29.73,North,5,0.0,0.0,47,0.00,,,0.00,241,WeatherCatV1.15B25,2013-06-20 17:44:00,
2013-06-20 13:49:00,72.4,51.6,29.73,North,5,0.0,0.0,48,0.00,,,0.00,248,WeatherCatV1.15B25,2013-06-20 17:49:00,
2013-06-20 13:54:00,72.6,52.3,29.73,North,5,0.0,0.0,49,0.00,,,0.00,142,WeatherCatV1.15B25,2013-06-20 17:54:00,
2013-06-20 13:59:00,72.8,51.4,29.73,North,5,0.0,1.0,47,0.00,,,0.00,90,WeatherCatV1.15B25,2013-06-20 17:59:00,
2013-06-20 14:04:00,72.9,52.0,29.73,North,5,0.0,0.0,48,0.00,,,0.00,132,WeatherCatV1.15B25,2013-06-20 18:04:00,
2013-06-20 14:09:00,73.0,51.6,29.72,North,5,0.0,0.0,47,0.00,,,0.00,313,WeatherCatV1.15B25,2013-06-20 18:09:00,
2013-06-20 14:14:00,73.0,52.1,29.72,North,5,0.0,0.0,48,0.00,,,0.00,178,WeatherCatV1.15B25,2013-06-20 18:14:00,
2013-06-20 14:19:00,73.1,52.2,29.72,NNE,19,0.0,0.0,48,0.00,,,0.00,156,WeatherCatV1.15B25,2013-06-20 18:19:00,
2013-06-20 14:24:00,73.1,51.1,29.72,NNE,26,0.0,2.0,46,0.00,,,0.00,148,WeatherCatV1.15B25,2013-06-20 18:24:00,
2013-06-20 14:29:00,73.3,49.4,29.71,NNE,26,0.0,1.0,43,0.00,,,0.00,153,WeatherCatV1.15B25,2013-06-20 18:29:00,
2013-06-20 14:34:00,73.6,50.9,29.72,SSW,211,0.0,1.0,45,0.00,,,0.00,214,WeatherCatV1.15B25,2013-06-20 18:34:00,
2013-06-20 14:39:00,73.8,51.1,29.71,SSW,205,0.0,1.0,45,0.00,,,0.00,195,WeatherCatV1.15B25,2013-06-20 18:39:00,
2013-06-20 14:44:00,74.0,53.0,29.71,SSW,205,0.0,0.0,48,0.00,,,0.00,188,WeatherCatV1.15B25,2013-06-20 18:44:00,
2013-06-20 14:49:00,74.1,52.6,29.71,SW,219,1.0,1.0,47,0.00,,,0.00,111,WeatherCatV1.15B25,2013-06-20 18:49:00,
2013-06-20 14:54:00,74.1,51.4,29.71,South,182,0.0,1.0,45,0.00,,,0.00,169,WeatherCatV1.15B25,2013-06-20 18:54:00,
2013-06-20 14:59:00,74.2,52.1,29.71,SSE,167,0.0,2.0,46,0.00,,,0.00,116,WeatherCatV1.15B25,2013-06-20 18:59:00,
2013-06-20 15:04:00,74.2,52.7,29.71,SSE,167,0.0,0.0,47,0.00,,,0.00,221,WeatherCatV1.15B25,2013-06-20 19:04:00,
2013-06-20 15:09:00,74.4,52.8,29.71,SSE,167,0.0,1.0,47,0.00,,,0.00,700,WeatherCatV1.15B25,2013-06-20 19:09:00,
2013-06-20 15:14:00,74.6,51.8,29.70,SSE,167,0.0,0.0,45,0.00,,,0.00,292,WeatherCatV1.15B25,2013-06-20 19:14:00,
2013-06-20 15:19:00,75.1,53.5,29.70,SSE,167,0.0,0.0,47,0.00,,,0.00,100,WeatherCatV1.15B25,2013-06-20 19:19:00,
2013-06-20 15:24:00,75.4,52.6,29.71,SSE,167,0.0,1.0,45,0.00,,,0.00,91,WeatherCatV1.15B25,2013-06-20 19:24:00,
2013-06-20 15:29:00,75.7,53.4,29.70,SSE,167,0.0,1.0,46,0.00,,,0.00,91,WeatherCatV1.15B25,2013-06-20 19:29:00,
2013-06-20 15:34:00,75.8,52.9,29.71,SSE,167,0.0,1.0,45,0.00,,,0.00,104,WeatherCatV1.15B25,2013-06-20 19:34:00,
2013-06-20 15:39:00,75.8,52.9,29.70,SSE,167,0.0,0.0,45,0.00,,,0.00,104,WeatherCatV1.15B25,2013-06-20 19:39:00,
2013-06-20 15:44:00,75.9,54.8,29.70,SSE,167,0.0,1.0,48,0.00,,,0.00,237,WeatherCatV1.15B25,2013-06-20 19:44:00,
2013-06-20 15:49:00,75.9,53.6,29.70,SSE,167,0.0,0.0,46,0.00,,,0.00,102,WeatherCatV1.15B25,2013-06-20 19:49:00,
2013-06-20 15:54:00,75.7,51.6,29.70,SSE,167,0.0,1.0,43,0.00,,,0.00,438,WeatherCatV1.15B25,2013-06-20 19:54:00,
2013-06-20 15:59:00,75.7,53.4,29.70,SSE,167,0.0,1.0,46,0.00,,,0.00,134,WeatherCatV1.15B25,2013-06-20 19:59:00,
2013-06-20 16:04:00,75.8,52.3,29.69,SSE,167,0.0,0.0,44,0.00,,,0.00,241,WeatherCatV1.15B25,2013-06-20 20:04:00,
2013-06-20 16:09:00,76.0,53.1,29.69,SSE,167,0.0,0.0,45,0.00,,,0.00,146,WeatherCatV1.15B25,2013-06-20 20:09:00,
2013-06-20 16:14:00,76.2,54.5,29.69,SSE,167,0.0,0.0,47,0.00,,,0.00,577,WeatherCatV1.15B25,2013-06-20 20:14:00,
2013-06-20 16:19:00,76.5,54.2,29.69,SSE,167,0.0,1.0,46,0.00,,,0.00,701,WeatherCatV1.15B25,2013-06-20 20:19:00,
2013-06-20 16:24:00,76.8,53.2,29.69,SSE,167,0.0,1.0,44,0.00,,,0.00,707,WeatherCatV1.15B25,2013-06-20 20:24:00,
2013-06-20 16:29:00,76.9,52.7,29.69,SSE,159,0.0,0.0,43,0.00,,,0.00,705,WeatherCatV1.15B25,2013-06-20 20:29:00,
2013-06-20 16:34:00,77.0,55.2,29.68,SSE,159,0.0,0.0,47,0.00,,,0.00,65,WeatherCatV1.15B25,2013-06-20 20:34:00,
2013-06-20 16:39:00,77.1,54.7,29.68,SSE,159,0.0,1.0,46,0.00,,,0.00,62,WeatherCatV1.15B25,2013-06-20 20:39:00,
2013-06-20 16:44:00,77.2,53.6,29.68,SSE,159,0.0,1.0,44,0.00,,,0.00,619,WeatherCatV1.15B25,2013-06-20 20:44:00,
2013-06-20 16:49:00,77.4,54.4,29.68,SSE,159,0.0,0.0,45,0.00,,,0.00,622,WeatherCatV1.15B25,2013-06-20 20:49:00,
2013-06-20 16:54:00,77.5,54.5,29.68,SSE,159,0.0,1.0,45,0.00,,,0.00,589,WeatherCatV1.15B25,2013-06-20 20:54:00,
2013-06-20 16:59:00,77.7,52.1,29.68,SSE,159,0.0,1.0,41,0.00,,,0.00,21,WeatherCatV1.15B25,2013-06-20 20:59:00,
2013-06-20 17:04:00,77.7,54.0,29.68,SSE,159,0.0,1.0,44,0.00,,,0.00,86,WeatherCatV1.15B25,2013-06-20 21:04:00,
2013-06-20 17:09:00,77.7,55.2,29.68,SSE,159,0.0,0.0,46,0.00,,,0.00,62,WeatherCatV1.15B25,2013-06-20 21:09:00,
2013-06-20 17:14:00,77.6,54.6,29.68,SSE,159,0.0,1.0,45,0.00,,,0.00,109,WeatherCatV1.15B25,2013-06-20 21:14:00,
2013-06-20 17:19:00,77.3,54.9,29.68,SSE,159,0.0,1.0,46,0.00,,,0.00,105,WeatherCatV1.15B25,2013-06-20 21:19:00,
2013-06-20 17:24:00,77.0,53.4,29.68,SSE,159,0.0,0.0,44,0.00,,,0.00,79,WeatherCatV1.15B25,2013-06-20 21:24:00,
2013-06-20 17:29:00,76.7,54.3,29.68,SSE,159,0.0,1.0,46,0.00,,,0.00,144,WeatherCatV1.15B25,2013-06-20 21:29:00,
2013-06-20 17:34:00,76.2,53.9,29.68,WSW,243,0.0,3.0,46,0.00,,,0.00,81,WeatherCatV1.15B25,2013-06-20 21:34:00,
2013-06-20 17:39:00,75.8,54.1,29.68,WSW,243,0.0,0.0,47,0.00,,,0.00,70,WeatherCatV1.15B25,2013-06-20 21:39:00,
2013-06-20 17:44:00,75.5,53.8,29.68,WSW,243,0.0,0.0,47,0.00,,,0.00,53,WeatherCatV1.15B25,2013-06-20 21:44:00,
2013-06-20 17:49:00,75.1,55.7,29.68,WSW,243,0.0,1.0,51,0.00,,,0.00,53,WeatherCatV1.15B25,2013-06-20 21:49:00,
2013-06-20 17:54:00,74.7,53.7,29.68,WSW,243,0.0,0.0,48,0.00,,,0.00,53,WeatherCatV1.15B25,2013-06-20 21:54:00,
2013-06-20 17:59:00,74.3,55.0,29.67,WSW,243,0.0,0.0,51,0.00,,,0.00,47,WeatherCatV1.15B25,2013-06-20 21:59:00,
2013-06-20 18:04:00,74.0,54.2,29.68,WSW,243,0.0,1.0,50,0.00,,,0.00,39,WeatherCatV1.15B25,2013-06-20 22:04:00,
2013-06-20 18:09:00,73.7,52.2,29.68,WSW,243,0.0,0.0,47,0.00,,,0.00,33,WeatherCatV1.15B25,2013-06-20 22:09:00,
2013-06-20 18:14:00,73.3,54.6,29.68,WSW,243,0.0,0.0,52,0.00,,,0.00,32,WeatherCatV1.15B25,2013-06-20 22:14:00,
2013-06-20 18:19:00,73.0,51.0,29.68,WSW,243,0.0,0.0,46,0.00,,,0.00,33,WeatherCatV1.15B25,2013-06-20 22:19:00,
2013-06-20 18:24:00,72.8,54.1,29.68,WSW,243,0.0,0.0,52,0.00,,,0.00,35,WeatherCatV1.15B25,2013-06-20 22:24:00,
2013-06-20 18:29:00,72.5,57.3,29.68,WSW,243,1.0,1.0,59,0.00,,,0.00,32,WeatherCatV1.15B25,2013-06-20 22:29:00,
2013-06-20 18:34:00,72.2,58.4,29.68,WSW,243,0.0,0.0,62,0.00,,,0.00,28,WeatherCatV1.15B25,2013-06-20 22:34:00,
2013-06-20 18:39:00,72.0,56.9,29.68,WSW,243,0.0,0.0,59,0.00,,,0.00,32,WeatherCatV1.15B25,2013-06-20 22:39:00,
2013-06-20 18:44:00,71.8,57.2,29.68,WSW,243,0.0,0.0,60,0.00,,,0.00,26,WeatherCatV1.15B25,2013-06-20 22:44:00,
2013-06-20 18:49:00,71.5,58.2,29.68,WSW,243,0.0,0.0,63,0.00,,,0.00,23,WeatherCatV1.15B25,2013-06-20 22:49:00,
2013-06-20 18:54:00,71.2,58.4,29.68,WSW,243,0.0,0.0,64,0.00,,,0.00,19,WeatherCatV1.15B25,2013-06-20 22:54:00,
2013-06-20 18:59:00,70.9,57.7,29.68,WSW,243,0.0,0.0,63,0.00,,,0.00,18,WeatherCatV1.15B25,2013-06-20 22:59:00,
2013-06-20 19:04:00,70.5,57.7,29.68,WSW,243,0.0,0.0,64,0.00,,,0.00,18,WeatherCatV1.15B25,2013-06-20 23:04:00,
2013-06-20 19:09:00,70.1,56.9,29.68,WSW,243,0.0,1.0,63,0.00,,,0.00,19,WeatherCatV1.15B25,2013-06-20 23:09:00,
2013-06-20 19:14:00,69.7,57.0,29.68,WSW,243,0.0,0.0,64,0.00,,,0.00,19,WeatherCatV1.15B25,2013-06-20 23:14:00,
2013-06-20 19:19:00,69.3,57.0,29.68,WSW,243,0.0,0.0,65,0.00,,,0.00,14,WeatherCatV1.15B25,2013-06-20 23:19:00,
2013-06-20 19:24:00,68.9,56.6,29.69,WSW,243,0.0,0.0,65,0.00,,,0.00,12,WeatherCatV1.15B25,2013-06-20 23:24:00,
2013-06-20 19:29:00,68.6,56.4,29.69,WSW,243,0.0,0.0,65,0.00,,,0.00,12,WeatherCatV1.15B25,2013-06-20 23:29:00,
2013-06-20 19:34:00,68.3,56.5,29.69,WSW,243,0.0,0.0,66,0.00,,,0.00,11,WeatherCatV1.15B25,2013-06-20 23:34:00,
2013-06-20 19:39:00,68.0,57.0,29.69,WSW,243,0.0,0.0,68,0.00,,,0.00,9,WeatherCatV1.15B25,2013-06-20 23:39:00,
2013-06-20 19:44:00,67.6,57.1,29.69,WSW,243,0.0,0.0,69,0.00,,,0.00,7,WeatherCatV1.15B25,2013-06-20 23:44:00,
2013-06-20 19:49:00,67.2,57.1,29.69,WSW,243,0.0,0.0,70,0.00,,,0.00,5,WeatherCatV1.15B25,2013-06-20 23:49:00,
2013-06-20 19:54:00,67.0,57.3,29.69,WSW,243,0.0,0.0,71,0.00,,,0.00,0,WeatherCatV1.15B25,2013-06-20 23:54:00,
2013-06-20 19:59:00,66.6,56.9,29.69,WSW,243,0.0,1.0,71,0.00,,,0.00,0,WeatherCatV1.15B25,2013-06-20 23:59:00,
2013-06-20 20:04:00,66.2,56.9,29.69,WSW,243,0.0,0.0,72,0.00,,,0.00,0,WeatherCatV1.15B25,2013-06-21 00:04:00,
2013-06-20 20:09:00,65.8,56.5,29.69,WSW,243,0.0,1.0,72,0.00,,,0.00,0,WeatherCatV1.15B25,2013-06-21 00:09:00,
2013-06-20 20:14:00,65.6,56.7,29.69,WSW,243,0.0,0.0,73,0.00,,,0.00,0,WeatherCatV1.15B25,2013-06-21 00:14:00,
2013-06-20 20:19:00,65.2,56.3,29.69,WSW,243,0.0,0.0,73,0.00,,,0.00,0,WeatherCatV1.15B25,2013-06-21 00:19:00,
2013-06-20 20:24:00,65.0,56.5,29.70,WSW,243,0.0,0.0,74,0.00,,,0.00,0,WeatherCatV1.15B25,2013-06-21 00:24:00,
2013-06-20 20:29:00,64.6,56.1,29.70,WSW,243,0.0,0.0,74,0.00,,,0.00,0,WeatherCatV1.15B25,2013-06-21 00:29:00,
2013-06-20 20:34:00,64.1,56.0,29.70,WSW,243,0.0,0.0,75,0.00,,,0.00,0,WeatherCatV1.15B25,2013-06-21 00:34:00,
2013-06-20 20:39:00,63.8,56.1,29.70,WSW,243,0.0,0.0,76,0.00,,,0.00,0,WeatherCatV1.15B25,2013-06-21 00:39:00,
2013-06-20 20:44:00,63.4,56.1,29.70,WSW,243,0.0,0.0,77,0.00,,,0.00,0,WeatherCatV1.15B25,2013-06-21 00:44:00,
2013-06-20 20:49:00,63.1,56.1,29.70,WSW,243,0.0,0.0,78,0.00,,,0.00,0,WeatherCatV1.15B25,2013-06-21 00:49:00,
2013-06-20 20:54:00,62.6,55.6,29.70,WSW,243,0.0,0.0,78,0.00,,,0.00,0,WeatherCatV1.15B25,2013-06-21 00:54:00,
2013-06-20 20:59:00,62.3,55.3,29.71,WSW,243,0.0,0.0,78,0.00,,,0.00,0,WeatherCatV1.15B25,2013-06-21 00:59:00,
2013-06-20 21:04:00,62.0,55.4,29.71,WSW,243,0.0,0.0,79,0.00,,,0.00,0,WeatherCatV1.15B25,2013-06-21 01:04:00,
2013-06-20 21:09:00,61.6,55.4,29.71,WSW,243,0.0,0.0,80,0.00,,,0.00,0,WeatherCatV1.15B25,2013-06-21 01:09:00,
2013-06-20 21:14:00,61.3,55.1,29.71,WSW,243,0.0,0.0,80,0.00,,,0.00,0,WeatherCatV1.15B25,2013-06-21 01:14:00,
2013-06-20 21:19:00,61.2,55.3,29.72,WSW,243,0.0,1.0,81,0.00,,,0.00,0,WeatherCatV1.15B25,2013-06-21 01:19:00,
2013-06-20 21:24:00,61.0,55.1,29.72,WSW,243,0.0,1.0,81,0.00,,,0.00,0,WeatherCatV1.15B25,2013-06-21 01:24:00,
2013-06-20 21:29:00,60.7,55.2,29.72,WSW,243,1.0,1.0,82,0.00,,,0.00,0,WeatherCatV1.15B25,2013-06-21 01:29:00,
2013-06-20 21:34:00,60.5,55.0,29.72,WSW,243,0.0,0.0,82,0.00,,,0.00,0,WeatherCatV1.15B25,2013-06-21 01:34:00,
2013-06-20 21:39:00,60.3,54.8,29.72,WSW,243,0.0,0.0,82,0.00,,,0.00,0,WeatherCatV1.15B25,2013-06-21 01:39:00,
2013-06-20 21:44:00,60.1,54.9,29.73,WSW,243,0.0,0.0,83,0.00,,,0.00,0,WeatherCatV1.15B25,2013-06-21 01:44:00,
2013-06-20 21:49:00,59.9,55.0,29.72,WSW,243,0.0,0.0,84,0.00,,,0.00,0,WeatherCatV1.15B25,2013-06-21 01:49:00,
2013-06-20 21:54:00,59.6,54.8,29.72,WSW,243,0.0,0.0,84,0.00,,,0.00,0,WeatherCatV1.15B25,2013-06-21 01:54:00,
2013-06-20 21:59:00,59.4,54.6,29.72,WSW,243,0.0,0.0,84,0.00,,,0.00,0,WeatherCatV1.15B25,2013-06-21 01:59:00,
2013-06-20 22:04:00,59.2,54.4,29.72,WSW,243,0.0,0.0,84,0.00,,,0.00,0,WeatherCatV1.15B25,2013-06-21 02:04:00,
2013-06-20 22:09:00,59.0,54.2,29.72,WSW,243,0.0,0.0,84,0.00,,,0.00,0,WeatherCatV1.15B25,2013-06-21 02:09:00,
2013-06-20 22:14:00,59.0,54.5,29.72,WSW,243,0.0,0.0,85,0.00,,,0.00,0,WeatherCatV1.15B25,2013-06-21 02:14:00,
2013-06-20 22:19:00,59.0,55.1,29.73,North,0,0.0,0.0,87,0.00,,,0.00,0,WeatherCatV1.15B25,2013-06-21 02:19:00,
2013-06-20 22:24:00,58.7,54.8,29.73,North,0,0.0,0.0,87,0.00,,,0.00,0,WeatherCatV1.15B25,2013-06-21 02:24:00,
2013-06-20 22:29:00,58.5,54.3,29.73,North,0,0.0,0.0,86,0.00,,,0.00,0,WeatherCatV1.15B25,2013-06-21 02:29:00,
2013-06-20 22:34:00,58.4,54.5,29.72,North,0,0.0,1.0,87,0.00,,,0.00,0,WeatherCatV1.15B25,2013-06-21 02:34:00,
2013-06-20 22:39:00,58.2,54.3,29.73,North,0,0.0,0.0,87,0.00,,,0.00,0,WeatherCatV1.15B25,2013-06-21 02:39:00,
2013-06-20 22:44:00,57.9,53.7,29.72,North,0,0.0,0.0,86,0.00,,,0.00,0,WeatherCatV1.15B25,2013-06-21 02:44:00,
2013-06-20 22:49:00,57.7,53.5,29.73,North,0,0.0,0.0,86,0.00,,,0.00,0,WeatherCatV1.15B25,2013-06-21 02:49:00,
2013-06-20 22:54:00,57.6,53.4,29.73,North,0,0.0,0.0,86,0.00,,,0.00,0,WeatherCatV1.15B25,2013-06-21 02:54:00,
2013-06-20 22:59:00,57.3,53.1,29.73,North,0,0.0,0.0,86,0.00,,,0.00,0,WeatherCatV1.15B25,2013-06-21 02:59:00,
2013-06-20 23:04:00,57.1,52.9,29.73,North,0,0.0,0.0,86,0.00,,,0.00,0,WeatherCatV1.15B25,2013-06-21 03:04:00,
2013-06-20 23:09:00,56.9,52.8,29.73,North,0,0.0,0.0,86,0.00,,,0.00,0,WeatherCatV1.15B25,2013-06-21 03:09:00,
2013-06-20 23:14:00,56.8,52.7,29.73,North,0,0.0,0.0,86,0.00,,,0.00,0,WeatherCatV1.15B25,2013-06-21 03:14:00,
2013-06-20 23:19:00,56.7,52.6,29.74,North,0,0.0,0.0,86,0.00,,,0.00,0,WeatherCatV1.15B25,2013-06-21 03:19:00,
2013-06-20 23:24:00,56.5,52.4,29.74,North,0,0.0,0.0,86,0.00,,,0.00,0,WeatherCatV1.15B25,2013-06-21 03:24:00,
2013-06-20 23:29:00,56.3,52.5,29.74,North,0,0.0,0.0,87,0.00,,,0.00,0,WeatherCatV1.15B25,2013-06-21 03:29:00,
2013-06-20 23:34:00,56.0,52.2,29.73,North,0,0.0,0.0,87,0.00,,,0.00,0,WeatherCatV1.15B25,2013-06-21 03:34:00,
2013-06-20 23:39:00,55.8,52.0,29.73,North,0,0.0,0.0,87,0.00,,,0.00,0,WeatherCatV1.15B25,2013-06-21 03:39:00,
2013-06-20 23:44:00,55.5,52.0,29.73,North,0,0.0,0.0,88,0.00,,,0.00,0,WeatherCatV1.15B25,2013-06-21 03:44:00,
2013-06-20 23:49:00,55.3,51.8,29.73,North,0,0.0,0.0,88,0.00,,,0.00,0,WeatherCatV1.15B25,2013-06-21 03:49:00,
2013-06-20 23:54:00,55.1,51.6,29.73,North,0,0.0,0.0,88,0.00,,,0.00,0,WeatherCatV1.15B25,2013-06-21 03:54:00,
2013-06-20 23:59:00,54.9,51.4,29.73,North,0,0.0,0.0,88,0.00,,,0.00,0,WeatherCatV1.15B25,2013-06-21 03:59:00,